| time (UTC) | temp F | wind direction | speed knots | gust knots | rain 1hr in | rain 24hr in | rain mn in | humidity % | barometer mb |
| 20260507200022 | 61 | 273 | 3.5 | 13.0 | 0.00 | 0.18 | 0.01 | 34 | 1005.1 |
| 20260507194512 | 62 | 278 | 0.9 | 10.4 | 0.00 | 0.20 | 0.01 | 35 | 1005.2 |
| 20260507193020 | 61 | 305 | 3.5 | 7.8 | 0.00 | 0.20 | 0.01 | 34 | 1005.3 |
| 20260507191519 | 61 | 278 | 2.6 | 6.1 | 0.00 | 0.20 | 0.01 | 35 | 1005.6 |
| 20260507190005 | 60 | 296 | 3.5 | 10.4 | 0.00 | 0.20 | 0.01 | 33 | 1005.7 |
| 20260507184504 | 60 | 307 | 5.2 | 12.2 | 0.00 | 0.21 | 0.01 | 32 | 1006.0 |
| 20260507183004 | 60 | 312 | 2.6 | 10.4 | 0.00 | 0.21 | 0.01 | 34 | 1006.1 |
| 20260507181502 | 59 | 329 | 4.3 | 10.4 | 0.00 | 0.21 | 0.01 | 33 | 1006.3 |
| 20260507180001 | 59 | 7 | 3.5 | 11.3 | 0.00 | 0.21 | 0.01 | 35 | 1006.2 |
| 20260507174502 | 60 | 296 | 2.6 | 7.8 | 0.00 | 0.21 | 0.01 | 34 | 1006.2 |
| 20260507173134 | 59 | 305 | 2.6 | 12.2 | 0.00 | 0.21 | 0.01 | 36 | 1006.0 |
| 20260507171602 | 59 | 315 | 2.6 | 10.4 | 0.00 | 0.21 | 0.01 | 38 | 1006.2 |
| 20260507170056 | 59 | 298 | 2.6 | 7.8 | 0.00 | 0.21 | 0.01 | 37 | 1006.3 |
| 20260507164601 | 58 | 263 | 2.6 | 10.4 | 0.00 | 0.21 | 0.01 | 45 | 1006.6 |
| 20260507163052 | 58 | 336 | 3.5 | 9.6 | 0.00 | 0.21 | 0.01 | 41 | 1006.7 |
| 20260507161605 | 58 | 272 | 1.7 | 9.6 | 0.00 | 0.21 | 0.01 | 47 | 1006.9 |
| 20260507154546 | 56 | 285 | 3.5 | 9.6 | 0.00 | 0.21 | 0.01 | 53 | 1007.0 |
| 20260507153044 | 56 | 313 | 2.6 | 7.8 | 0.00 | 0.21 | 0.01 | 60 | 1007.1 |
| 20260507151543 | 56 | 314 | 6.1 | 12.2 | 0.00 | 0.21 | 0.01 | 60 | 1007.2 |
| 20260507150041 | 56 | 288 | 1.7 | 7.0 | 0.00 | 0.21 | 0.01 | 62 | 1007.4 |
| 20260507144550 | 55 | 286 | 2.6 | 6.1 | 0.00 | 0.21 | 0.01 | 64 | 1007.4 |
| 20260507143039 | 56 | 311 | 0.9 | 5.2 | 0.00 | 0.21 | 0.01 | 64 | 1007.4 |
| 20260507141537 | 55 | 281 | 2.6 | 7.0 | 0.00 | 0.21 | 0.01 | 64 | 1007.4 |
| 20260507140037 | 55 | 319 | 1.7 | 5.2 | 0.00 | 0.21 | 0.01 | 62 | 1007.5 |
| 20260507134534 | 55 | 329 | 0.9 | 4.3 | 0.00 | 0.21 | 0.01 | 69 | 1007.3 |
| 20260507133033 | 54 | 306 | 0.9 | 3.5 | 0.00 | 0.21 | 0.01 | 69 | 1007.5 |
| 20260507131533 | 53 | 311 | 1.7 | 6.1 | 0.00 | 0.21 | 0.01 | 70 | 1007.7 |
| 20260507130039 | 53 | 277 | 0.9 | 3.5 | 0.00 | 0.21 | 0.01 | 74 | 1007.8 |
| 20260507124530 | 52 | 316 | 0.9 | 5.2 | 0.00 | 0.21 | 0.01 | 79 | 1007.9 |
| 20260507123038 | 51 | 281 | 0.0 | 6.1 | 0.00 | 0.21 | 0.01 | 80 | 1007.9 |
| 20260507121527 | 50 | 310 | 4.3 | 8.7 | 0.00 | 0.21 | 0.01 | 80 | 1008.0 |
| 20260507120025 | 49 | 300 | 0.9 | 3.5 | 0.00 | 0.21 | 0.01 | 83 | 1008.0 |
| 20260507114524 | 48 | 295 | 0.0 | 4.3 | 0.00 | 0.21 | 0.01 | 86 | 1007.9 |
| 20260507113027 | 48 | 288 | 0.0 | 3.5 | 0.00 | 0.21 | 0.01 | 88 | 1007.9 |
| 20260507111521 | 47 | 291 | 0.0 | 1.7 | 0.00 | 0.21 | 0.01 | 89 | 1007.6 |
| 20260507110023 | 47 | 291 | 0.0 | 1.7 | 0.00 | 0.21 | 0.01 | 88 | 1007.7 |
| 20260507104517 | 47 | 290 | 0.9 | 4.3 | 0.00 | 0.21 | 0.01 | 89 | 1007.5 |
| 20260507103017 | 47 | 280 | 0.9 | 3.5 | 0.00 | 0.21 | 0.01 | 89 | 1007.2 |
| 20260507101517 | 47 | 293 | 0.0 | 1.7 | 0.00 | 0.21 | 0.01 | 89 | 1007.0 |
| 20260507100014 | 47 | 323 | 0.9 | 4.3 | 0.00 | 0.21 | 0.01 | 90 | 1007.0 |
| 20260507094513 | 47 | 306 | 0.9 | 4.3 | 0.00 | 0.21 | 0.01 | 89 | 1007.0 |
| 20260507093012 | 47 | 289 | 0.9 | 5.2 | 0.00 | 0.21 | 0.01 | 90 | 1007.0 |
| 20260507091511 | 47 | 301 | 0.9 | 6.1 | 0.00 | 0.21 | 0.01 | 90 | 1007.2 |
| 20260507090012 | 47 | 311 | 0.9 | 7.0 | 0.00 | 0.21 | 0.01 | 92 | 1007.4 |
| 20260507084512 | 47 | 291 | 0.0 | 2.6 | 0.00 | 0.21 | 0.01 | 93 | 1007.0 |
| 20260507083006 | 47 | 302 | 0.0 | 4.3 | 0.00 | 0.21 | 0.01 | 93 | 1006.9 |
| 20260507081503 | 48 | 307 | 0.9 | 3.5 | 0.00 | 0.21 | 0.01 | 92 | 1006.8 |
| 20260507080002 | 48 | 298 | 0.0 | 4.3 | 0.00 | 0.21 | 0.01 | 91 | 1006.6 |
| 20260507074600 | 49 | 310 | 1.7 | 5.2 | 0.00 | 0.21 | 0.01 | 89 | 1006.9 |
| 20260507073056 | 50 | 284 | 1.7 | 6.1 | 0.00 | 0.21 | 0.01 | 89 | 1007.0 |
| 20260507071553 | 50 | 301 | 2.6 | 7.8 | 0.00 | 0.21 | 0.01 | 91 | 1006.3 |
| 20260507070054 | 50 | 288 | 0.9 | 3.5 | 0.00 | 0.21 | 0.01 | 93 | 1006.3 |
| 20260507064606 | 50 | 296 | 0.0 | 2.6 | 0.00 | 0.21 | 0.01 | 92 | 1005.8 |
| 20260507063053 | 50 | 293 | 1.7 | 3.5 | 0.00 | 0.21 | 0.01 | 92 | 1006.2 |
| 20260507061548 | 50 | 298 | 0.9 | 3.5 | 0.00 | 0.21 | 0.01 | 92 | 1006.1 |
| 20260507060049 | 50 | 294 | 1.7 | 5.2 | 0.01 | 0.21 | 0.01 | 91 | 1006.2 |
| 20260507054546 | 50 | 319 | 2.6 | 7.0 | 0.01 | 0.21 | 0.01 | 91 | 1006.5 |
| 20260507053044 | 51 | 309 | 2.6 | 6.1 | 0.01 | 0.21 | 0.01 | 93 | 1006.7 |
| 20260507051541 | 51 | 300 | 0.9 | 8.7 | 0.01 | 0.21 | 0.01 | 94 | 1006.6 |
| 20260507050040 | 52 | 336 | 1.7 | 7.0 | 0.00 | 0.20 | 0.00 | 94 | 1006.7 |
| 20260507044534 | 52 | 313 | 0.9 | 6.1 | 0.03 | 0.20 | 0.00 | 95 | 1006.3 |
| 20260507043029 | 54 | 287 | 1.7 | 7.8 | 0.03 | 0.20 | 0.00 | 96 | 1006.2 |
| 20260507041540 | 54 | 291 | 0.0 | 1.7 | 0.03 | 0.20 | 0.00 | 96 | 1006.2 |
| 20260507040025 | 55 | 291 | 1.7 | 6.1 | 0.03 | 0.20 | 0.00 | 95 | 1006.4 |
| 20260507034519 | 56 | 293 | 0.9 | 7.0 | 0.00 | 0.17 | 0.17 | 96 | 1006.2 |
| 20260507033017 | 57 | 317 | 0.0 | 6.1 | 0.01 | 0.17 | 0.17 | 96 | 1005.9 |
| 20260507031514 | 58 | 317 | 4.3 | 9.6 | 0.01 | 0.17 | 0.17 | 97 | 1005.5 |
| 20260507030013 | 58 | 288 | 0.0 | 1.7 | 0.01 | 0.17 | 0.17 | 98 | 1005.2 |
| 20260507024512 | 58 | 281 | 0.0 | 1.7 | 0.00 | 0.16 | 0.16 | 98 | 1005.4 |
| 20260507023011 | 58 | 281 | 0.0 | 1.7 | 0.00 | 0.16 | 0.16 | 98 | 1005.4 |
| 20260507021512 | 58 | 272 | 0.0 | 0.9 | 0.00 | 0.16 | 0.16 | 98 | 1005.1 |
| 20260507020010 | 58 | 214 | 0.0 | 0.0 | 0.00 | 0.16 | 0.16 | 98 | 1005.0 |
| 20260507014517 | 58 | 347 | 0.0 | 1.7 | 0.00 | 0.16 | 0.16 | 98 | 1005.1 |
| 20260507013029 | 58 | 256 | 0.0 | 0.9 | 0.00 | 0.16 | 0.16 | 98 | 1005.2 |
| 20260507011513 | 58 | 281 | 0.0 | 1.7 | 0.00 | 0.16 | 0.16 | 97 | 1005.2 |
| 20260507010007 | 58 | 280 | 0.0 | 0.9 | 0.00 | 0.16 | 0.16 | 97 | 1005.2 |
| 20260507004507 | 58 | 288 | 0.0 | 2.6 | 0.00 | 0.16 | 0.16 | 97 | 1005.1 |
| 20260507003006 | 58 | 305 | 0.0 | 1.7 | 0.00 | 0.16 | 0.16 | 97 | 1005.0 |
| 20260507001505 | 58 | 23 | 0.0 | 0.9 | 0.00 | 0.16 | 0.16 | 97 | 1004.9 |
| 20260507000019 | 58 | 335 | 0.0 | 2.6 | 0.02 | 0.16 | 0.16 | 97 | 1004.9 |
| 20260506234504 | 58 | 284 | 0.0 | 0.9 | 0.03 | 0.16 | 0.16 | 97 | 1004.9 |
| 20260506233004 | 58 | 294 | 0.0 | 0.9 | 0.04 | 0.16 | 0.16 | 97 | 1004.8 |
| 20260506231502 | 58 | 95 | 0.0 | 2.6 | 0.05 | 0.16 | 0.16 | 97 | 1004.9 |
| 20260506230001 | 58 | 319 | 0.0 | 0.9 | 0.06 | 0.14 | 0.14 | 97 | 1004.9 |
| 20260506224604 | 58 | 291 | 0.0 | 1.7 | 0.06 | 0.13 | 0.13 | 97 | 1005.0 |
| 20260506223126 | 58 | 350 | 0.0 | 0.0 | 0.06 | 0.12 | 0.12 | 96 | 1005.0 |
| 20260506221603 | 58 | 288 | 0.0 | 0.0 | 0.05 | 0.11 | 0.11 | 96 | 1005.1 |
| 20260506220057 | 59 | 338 | 0.0 | 1.7 | 0.02 | 0.08 | 0.08 | 96 | 1005.1 |
| 20260506214608 | 59 | 305 | 0.0 | 3.5 | 0.01 | 0.07 | 0.07 | 95 | 1005.3 |
| 20260506213054 | 59 | 188 | 0.0 | 1.7 | 0.01 | 0.06 | 0.06 | 95 | 1005.2 |
| 20260506211553 | 59 | 267 | 0.0 | 0.9 | 0.02 | 0.06 | 0.06 | 95 | 1005.5 |
| 20260506210051 | 59 | 336 | 0.0 | 3.5 | 0.03 | 0.06 | 0.06 | 95 | 1005.7 |
| 20260506204550 | 59 | 271 | 0.0 | 5.2 | 0.03 | 0.06 | 0.06 | 94 | 1005.8 |
| 20260506203050 | 60 | 160 | 0.0 | 2.6 | 0.02 | 0.05 | 0.05 | 94 | 1005.9 |
| 20260506201548 | 61 | 346 | 0.0 | 2.6 | 0.02 | 0.04 | 0.04 | 93 | 1005.8 |